Weather Roundup
Issued by NWS

Home | Current Version | Previous Version | Text Only | Print | Product List | Glossary On
Versions: 1 2 3 4 5 6 7 8 9 10 11 12 13 14 15 16 17 18 19 20 21 22 23 24 25 26 27 28 29 30 31 32 33 34 35 36 37 38 39 40 41 42 43 44 45 46 47 48 49 50
616
NZUS93 KARX 240110
HRRWXR

CURRENT HOURLY OBSERVATIONS ACROSS
MUCH OF THE UPPER MISSISSIPPI VALLEY
NATIONAL WEATHER SERVICE LA CROSSE WI
800 PM CDT WED AUG 23 2017


...SOUTHEAST MINNESOTA...


CITY           SKY/WX    TMP DP  RH WIND       PRES   REMARKS
ROCHESTER      CLEAR     65  54  67 NW5       30.05S
ROCHESTER/MAYO FAIR      70  50  49 CALM      30.05R
WINONA         CLEAR     66  55  68 CALM      30.03S
AUSTIN         CLEAR     68  52  56 CALM      30.04S
ALBERT LEA     CLEAR     66  61  82 CALM      30.04S
DODGE CENTER   CLEAR     64  55  72 CALM      30.05S
PRESTON        CLEAR     66  53  62 CALM      30.05S
OWATONNA       CLEAR     63  57  82 CALM      30.04S
FARIBAULT      CLEAR     64  61  88 CALM      30.04S
$$

...ELSEWHERE IN MINNESOTA...


CITY           SKY/WX    TMP DP  RH WIND       PRES   REMARKS
MINNEAPOLIS    PTCLDY    72  49  44 NE6       30.02S
INTNL FALLS    CLOUDY    57  50  77 NW5       30.08R
DULUTH         CLOUDY    60  50  69 N3        30.06S
RED WING       MIX PCPN  66  54  63 CALM      30.02S
REDWOOD FALLS  CLOUDY    69  55  60 SE6       30.01F
MANKATO        CLEAR     69  55  60 SE3       30.03F
WORTHINGTON    CLOUDY    68  61  78 SE3       30.03S
FAIRMONT       CLOUDY    69  60  73 S3        30.03F
$$

...SOUTHWEST WISCONSIN...


CITY           SKY/WX    TMP DP  RH WIND       PRES   REMARKS
LA CROSSE      CLEAR     68  53  58 N3        30.02S
PRAIRIE DU CHI CLEAR     67  53  59 CALM      30.02S
BOSCOBEL       CLEAR     65  54  67 CALM      30.02S
LONE ROCK      CLEAR     63  57  81 N5        30.02S
PLATTEVILLE    CLEAR     65  54  67 CALM      30.04R
FORT MC COY    CLEAR     62  54  75 CALM      30.05R
CAMP DOUGLAS   PTCLDY    61  52  72 CALM      30.03R
MAUSTON-NEW LI CLEAR     62  52  70 CALM      30.03R
VIROQUA        FAIR      63  54  73 CALM      30.05R
WIS DELLS      CLEAR     65  49  57 CALM      30.03S
$$

...ELSEWHERE IN WISCONSIN...


CITY           SKY/WX    TMP DP  RH WIND       PRES   REMARKS
MILWAUKEE      PTCLDY    65  57  75 SE6       30.00S
MADISON        PTCLDY    63  55  75 NW3       30.01S
GREEN BAY      CLEAR     60  56  86 N5        30.00S
EAU CLAIRE     CLEAR     64  51  62 N3        30.04R
BLACK RVR FLS  FAIR      63  50  62 CALM      30.03S
MEDFORD        CLEAR     57  47  67 CALM      30.05R
WAUSAU         CLEAR     63  46  54 N6        30.02R
WIS RAPIDS     CLEAR     62  49  62 NW5       30.04S
MARSHFIELD     CLEAR     60  49  66 NW6       30.03S
RICE LAKE      CLEAR     60  51  73 CALM      30.07S
$$

...NORTHEAST IOWA...


CITY           SKY/WX    TMP DP  RH WIND       PRES   REMARKS
WATERLOO       CLEAR     69  52  54 CALM      30.03S
DUBUQUE        CLEAR     65  54  67 NW5       30.04S
DECORAH        CLEAR     66  54  63 CALM      30.03S
MASON CITY     PTCLDY    64  56  75 CALM      30.05F
CHARLES CITY   CLEAR     66  59  77 CALM      30.04F
OELWEIN        CLEAR     66  57  72 NW3       30.05S
$$

...ELSEWHERE IN IOWA...


CITY           SKY/WX    TMP DP  RH WIND       PRES   REMARKS
DES MOINES     CLEAR     75  50  41 CALM      30.03F
IOWA CITY      CLEAR     68  56  65 W5        30.05S
FORT DODGE     NOT AVBL
MARSHALLTOWN   CLEAR     71  53  52 CALM      30.04S
CEDAR RAPIDS   CLEAR     69  53  56 W3        30.04R
$$

...NORTHERN ILLINOIS...


CITY           SKY/WX    TMP DP  RH WIND       PRES   REMARKS
CHICAGO-OHARE  PTCLDY    70  54  56 E7        30.01R
CHICAGO-MIDWAY MOCLDY    70  56  61 E9        30.01S
MOLINE         CLEAR     68  52  56 CALM      30.03R
ROCKFORD       CLEAR     68  53  58 NW6       30.03R
PEORIA         CLEAR     70  53  54 CALM      30.03S
$$

NOTE: "FAIR" INDICATES FEW OR NO CLOUDS BELOW 12,000 FEET WITH NO
SIGNIFICANT WEATHER AND/OR OBSTRUCTIONS TO VISIBILITY. WIND
SPEEDS ARE IN MILES-PER-HOUR.




USA.gov is the U.S. government's official web portal to all federal, state and local government web resources and services.